Wind_Speed
15 14 15 15 16 16 17 17 17 18 18 18 19 19 19 19 19 19 19 19 19 19 20 19 19 19 18 18 19 19 20 20 19 19 20 20 20 21 21 22 22 21 21
17 17 17 16 17 18 18 19 19 19 19 19 20 20 20 21 21 21 21 21 21 21 20 19 20 20 19 19 20 20 20 20 20 20 21 21 21 21 22 23 23 23 23
20 21 20 20 20 21 20 20 20 20 20 21 21 21 22 22 22 22 22 22 22 22 22 21 20 20 21 21 20 21 21 21 21 21 21 22 22 23 23 23 24 24 24
22 22 22 22 23 23 22 21 20 21 21 22 22 22 23 23 24 23 23 23 23 24 24 22 22 21 21 22 21 21 20 21 21 21 22 23 23 23 23 23 24 24 25
24 24 24 23 23 23 23 22 22 21 22 23 24 24 24 24 24 23 23 24 24 24 24 24 23 22 22 22 21 21 20 20 20 21 22 22 23 23 23 23 24 24 25
24 25 25 25 24 24 24 23 23 23 24 24 24 24 25 25 25 25 25 25 25 24 24 23 23 23 22 22 22 22 22 21 22 22 23 23 23 24 25 25 25 26 26
25 25 26 26 26 26 26 25 25 25 25 25 25 25 26 26 26 26 26 26 25 25 24 24 23 23 23 23 23 23 23 23 23 23 23 23 24 24 25 25 25 25 26
26 26 26 27 27 27 27 27 27 27 27 27 27 27 27 26 27 27 27 26 26 25 24 23 24 23 23 23 23 23 24 24 24 23 23 24 25 25 26 26 26 26 26
27 27 27 28 28 28 28 28 28 28 28 28 28 28 28 28 28 28 28 27 26 25 24 24 24 24 24 24 24 24 25 25 24 24 24 24 25 26 26 26 26 26 26
29 29 29 30 30 29 29 29 29 29 28 28 28 28 29 29 30 30 30 28 27 26 25 25 25 25 25 25 25 25 25 25 25 24 24 25 26 26 26 27 27 28 28
30 30 30 30 30 31 31 30 30 30 29 29 29 29 30 30 29 29 29 29 28 27 27 26 26 26 26 26 26 26 26 26 25 24 24 25 26 27 27 28 28 28 28
31 30 30 30 31 32 31 30 30 30 30 30 30 30 30 30 30 29 29 29 29 28 28 27 27 28 28 28 28 28 27 27 27 26 25 25 26 28 29 29 29 29 27
30 30 30 31 31 31 32 31 31 31 31 32 32 31 30 30 30 30 30 30 30 30 29 29 29 30 30 29 29 29 29 28 28 28 28 28 28 29 29 29 29 28 28
31 30 30 30 31 33 34 34 33 33 33 33 32 32 31 31 31 31 31 31 31 30 30 30 30 31 31 31 30 30 30 29 29 29 29 29 29 29 29 29 29 29 29
31 32 32 32 33 35 35 35 34 33 33 32 32 32 31 30 30 30 30 30 30 30 30 30 31 31 30 29 29 29 30 30 30 30 30 30 30 30 29 29 30 30 29
33 34 35 35 35 35 35 35 35 35 34 33 32 32 31 31 31 31 31 31 30 30 30 30 31 30 30 30 29 29 29 30 31 30 30 30 30 30 30 30 30 29 29
35 35 36 36 36 36 35 35 35 35 34 34 34 34 33 32 32 32 32 31 30 30 30 30 30 30 30 30 29 29 29 30 30 29 30 30 30 29 29 29 29 29 28
35 35 35 35 36 36 36 36 35 34 34 34 34 34 33 33 33 32 31 30 30 31 30 30 30 30 30 30 30 30 30 30 30 30 30 29 29 29 28 28 29 28 28
33 34 34 35 35 35 35 35 34 34 34 34 34 34 34 33 33 32 31 30 30 30 31 31 30 30 30 30 30 30 30 30 30 30 29 28 27 27 27 27 27 26 26
34 33 33 34 34 34 35 34 33 33 33 33 32 31 31 30 30 30 30 30 30 30 30 30 30 30 30 30 30 30 30 29 29 29 28 27 26 26 26 25 25 24 24
34 33 33 33 34 34 34 32 32 32 32 32 31 30 30 29 29 29 30 30 30 30 30 29 29 30 30 30 30 30 30 29 29 29 28 27 27 26 26 25 24 23 23
34 34 34 33 32 32 32 32 32 31 31 30 30 30 30 31 30 30 30 30 30 30 30 30 30 30 31 31 31 31 30 30 30 29 29 28 28 27 26 25 24 24 24
33 33 33 32 31 31 31 32 32 32 31 31 30 30 31 31 31 31 31 31 31 31 31 31 31 31 31 30 30 30 30 30 29 29 29 28 28 27 27 26 25 24 24
33 33 33 32 32 32 32 31 32 32 32 32 31 31 31 31 31 31 31 31 31 31 31 31 31 31 31 31 31 31 31 30 30 29 28 28 27 26 26 25 25 24 24
34 33 33 32 31 31 31 31 31 31 31 31 31 31 31 31 31 31 31 31 31 30 31 31 31 30 30 30 30 30 29 29 30 30 29 28 27 26 26 25 24 24 23
34 33 31 31 30 30 30 31 31 31 31 31 31 31 31 31 30 30 30 30 30 30 31 31 30 30 29 29 29 28 28 28 29 29 29 27 27 26 25 25 24 24 23
Wind_Direction
291 290 291 291 293 294 296 296 296 297 299 303 304 302 302 302 302 302 302 301 302 301 300 297 297 295 291 287 286 285 285 284 282 280 279 278 277 275 273 273 273 271 270
288 289 288 288 290 291 293 295 294 294 296 299 301 301 301 300 298 299 299 301 299 300 301 299 295 293 290 288 285 284 283 281 279 279 278 276 276 276 275 275 273 270 270
286 289 288 288 290 291 292 294 293 294 296 299 299 299 299 299 299 298 297 298 299 298 297 297 296 294 292 289 287 285 283 281 280 279 278 277 277 277 276 276 274 271 269
287 288 289 289 289 293 296 296 296 296 296 298 299 299 299 299 300 298 297 298 298 298 297 296 294 293 292 290 287 286 286 284 282 280 279 278 279 278 278 278 276 274 271
287 287 288 290 289 290 293 294 294 294 296 297 297 297 296 296 299 300 299 301 300 300 297 296 293 290 291 289 287 286 285 285 284 283 282 281 281 281 281 281 279 278 275
284 285 287 287 288 290 291 292 292 293 295 296 296 297 296 296 297 298 299 300 300 298 296 293 290 288 289 288 289 287 286 285 285 285 286 286 286 286 284 283 281 278 275
283 284 285 286 287 288 288 289 290 291 293 293 294 295 296 296 295 295 296 297 297 296 294 291 290 288 288 288 287 287 286 284 284 284 284 286 288 287 285 284 282 279 276
282 283 283 283 284 285 286 287 289 290 292 293 293 294 295 295 294 293 293 293 295 294 292 291 290 289 289 289 288 287 286 285 284 283 285 286 287 287 285 283 281 280 279
281 282 282 282 284 285 287 288 289 290 292 294 294 294 293 293 293 293 292 291 291 289 289 289 290 291 290 289 288 287 287 286 284 283 285 285 285 286 286 285 282 279 278
281 280 280 281 283 285 287 288 289 289 290 291 293 292 292 290 290 291 290 289 287 287 287 287 287 288 289 289 288 288 289 287 285 283 284 286 287 288 287 285 284 282 280
280 279 281 283 284 286 287 289 289 289 289 290 290 291 291 290 290 290 289 287 286 285 285 285 285 284 285 286 287 288 289 288 285 284 285 286 287 288 289 287 285 284 282
281 280 280 281 283 285 288 289 289 290 291 291 290 290 290 290 288 287 287 286 285 285 285 284 283 283 283 284 285 286 287 287 285 286 286 287 287 287 288 288 287 286 284
282 280 279 279 280 282 285 287 288 290 291 290 290 289 287 287 285 284 284 284 284 284 283 283 282 282 283 284 284 284 285 285 285 286 287 288 289 288 289 289 287 285 283
282 280 279 280 280 281 283 286 287 288 289 288 289 289 288 287 285 283 282 283 283 282 282 282 283 283 283 284 283 283 283 284 284 285 286 286 288 288 288 288 286 284 283
280 280 281 281 281 282 283 284 286 287 288 287 288 289 287 287 287 286 285 285 283 281 280 280 282 282 283 283 282 281 282 282 283 285 286 286 287 287 287 287 286 285 282
282 282 283 282 281 282 282 282 284 287 289 288 288 288 287 285 285 285 285 284 283 282 282 282 282 282 282 282 281 282 283 284 284 285 286 287 287 288 287 286 285 284 282
283 282 281 282 281 279 280 280 283 286 289 289 289 289 286 285 285 286 286 283 282 282 282 281 282 282 283 282 282 283 284 285 286 286 287 288 288 288 288 287 285 283 281
284 282 281 281 281 281 280 281 282 284 285 286 287 288 286 284 284 285 285 284 283 283 282 282 281 281 281 282 282 283 283 285 286 286 286 286 287 287 288 288 286 283 281
285 284 280 280 280 281 281 281 281 281 282 283 285 285 284 284 284 284 284 284 284 283 283 282 281 280 280 281 281 281 282 283 284 284 285 286 288 288 289 290 287 284 281
284 284 282 280 280 281 281 280 280 279 280 282 284 284 283 284 284 284 284 285 284 283 283 282 281 280 280 279 280 280 281 281 282 283 284 284 287 288 289 290 289 285 282
285 286 286 284 282 282 281 280 280 280 280 280 282 283 284 284 284 283 284 284 283 283 283 282 282 281 279 278 279 279 279 280 281 282 282 282 284 287 287 286 286 285 284
285 286 286 286 285 283 282 282 281 281 282 281 281 282 284 285 285 284 284 283 281 281 281 282 281 280 280 280 278 278 278 278 280 280 280 280 280 283 284 284 283 283 284
285 285 285 284 282 282 283 283 282 282 282 283 282 283 284 285 285 284 283 282 281 281 281 282 281 280 279 279 279 277 277 277 278 278 278 278 279 280 281 280 280 280 281
284 284 284 284 283 282 282 282 282 281 281 283 282 283 285 285 285 285 284 283 283 283 283 282 281 280 279 279 278 277 277 276 276 276 277 278 278 278 278 277 277 278 280
284 283 282 282 282 282 282 282 282 281 281 282 282 283 284 285 285 285 284 284 284 284 283 282 282 281 281 280 278 277 276 276 276 276 276 276 276 277 275 274 274 275 277
283 282 281 281 281 281 281 282 282 281 279 279 281 282 283 284 285 285 284 283 284 284 283 282 282 281 279 279 278 276 276 276 275 275 274 273 273 273 273 270 269 271 273
Height
5882 5881 5880 5879 5877 5876 5874 5873 5871 5869 5867 5865 5863 5861 5859 5857 5855 5853 5851 5849 5847 5845 5843 5841 5840 5838 5837 5836 5834 5833 5832 5831 5830 5829 5828 5827 5826 5826 5825 5825 5824 5824 5824
5878 5877 5875 5874 5873 5871 5870 5868 5866 5864 5862 5860 5858 5856 5854 5852 5850 5848 5846 5844 5842 5840 5838 5836 5834 5833 5831 5830 5829 5828 5827 5825 5825 5823 5822 5821 5820 5820 5819 5818 5818 5818 5817
5873 5871 5870 5869 5867 5865 5863 5862 5860 5858 5857 5854 5852 5850 5849 5847 5844 5842 5840 5838 5836 5834 5832 5831 5829 5827 5826 5824 5823 5822 5821 5819 5818 5817 5816 5815 5814 5813 5813 5812 5811 5811 5811
5867 5866 5865 5863 5861 5859 5857 5855 5854 5853 5851 5849 5846 5844 5843 5841 5838 5836 5834 5833 5831 5829 5827 5825 5823 5822 5820 5818 5817 5815 5814 5813 5812 5811 5810 5809 5808 5807 5806 5805 5804 5804 5804
5861 5860 5859 5857 5855 5853 5852 5850 5848 5846 5845 5842 5840 5838 5836 5834 5832 5830 5828 5827 5825 5823 5820 5819 5817 5816 5814 5812 5811 5810 5808 5807 5806 5805 5804 5803 5802 5800 5799 5798 5797 5796 5796
5855 5853 5852 5850 5849 5847 5846 5844 5842 5840 5838 5836 5834 5831 5829 5827 5825 5824 5822 5820 5818 5816 5814 5812 5811 5809 5808 5806 5805 5804 5802 5801 5800 5799 5798 5796 5795 5793 5792 5791 5790 5789 5788
5848 5846 5845 5843 5842 5841 5839 5837 5835 5833 5831 5829 5827 5825 5823 5821 5819 5817 5815 5813 5812 5810 5808 5806 5804 5802 5801 5800 5798 5797 5796 5794 5794 5792 5791 5789 5788 5786 5785 5783 5782 5781 5780
5840 5839 5837 5836 5834 5833 5831 5830 5828 5825 5823 5821 5820 5818 5816 5813 5811 5809 5808 5806 5804 5803 5801 5799 5797 5796 5794 5793 5792 5790 5789 5788 5787 5785 5784 5782 5781 5779 5777 5776 5775 5773 5773
5833 5831 5829 5828 5827 5825 5824 5822 5820 5818 5816 5814 5812 5810 5808 5806 5804 5802 5800 5798 5797 5795 5793 5792 5791 5789 5788 5786 5785 5784 5782 5781 5779 5778 5776 5775 5773 5771 5770 5768 5767 5766 5765
5824 5822 5821 5819 5818 5817 5815 5813 5811 5809 5807 5806 5804 5802 5800 5798 5796 5794 5792 5790 5789 5787 5786 5785 5783 5782 5780 5779 5778 5776 5775 5773 5772 5770 5769 5767 5766 5764 5762 5760 5759 5757 5756
5815 5813 5812 5811 5809 5808 5807 5805 5803 5801 5799 5797 5795 5793 5791 5789 5787 5785 5783 5782 5780 5779 5778 5777 5776 5774 5773 5771 5770 5769 5768 5766 5765 5763 5761 5760 5758 5756 5754 5752 5750 5749 5747
5806 5804 5803 5802 5801 5799 5798 5796 5794 5792 5790 5788 5786 5784 5782 5780 5778 5776 5775 5774 5772 5771 5770 5769 5767 5766 5765 5764 5762 5761 5760 5759 5757 5755 5754 5752 5750 5748 5746 5744 5742 5740 5739
5797 5796 5794 5793 5792 5790 5789 5786 5784 5783 5781 5779 5777 5775 5773 5771 5769 5768 5766 5765 5763 5762 5761 5760 5759 5758 5756 5755 5754 5753 5751 5750 5749 5747 5746 5744 5742 5740 5737 5735 5733 5732 5731
5789 5787 5786 5784 5783 5781 5779 5777 5776 5774 5772 5770 5768 5766 5764 5762 5760 5759 5758 5756 5755 5753 5752 5751 5750 5749 5748 5746 5745 5744 5743 5741 5740 5739 5737 5735 5733 5731 5729 5727 5725 5724 5723
5779 5778 5776 5775 5773 5771 5769 5768 5766 5764 5762 5760 5759 5757 5755 5754 5752 5750 5749 5747 5745 5744 5743 5742 5741 5740 5738 5737 5736 5735 5734 5732 5731 5729 5728 5726 5724 5722 5720 5718 5716 5715 5714
5770 5768 5766 5764 5763 5761 5760 5758 5756 5755 5752 5750 5749 5748 5746 5744 5743 5741 5740 5738 5736 5735 5734 5733 5731 5730 5729 5728 5727 5726 5725 5723 5722 5720 5718 5717 5715 5713 5711 5709 5707 5706 5705
5759 5758 5756 5754 5752 5751 5749 5748 5747 5745 5743 5741 5739 5738 5736 5734 5733 5732 5729 5728 5727 5725 5724 5723 5722 5721 5720 5719 5718 5717 5716 5714 5713 5711 5710 5708 5706 5704 5702 5700 5698 5697 5696
5748 5747 5745 5743 5742 5740 5739 5738 5736 5735 5733 5731 5729 5728 5726 5724 5723 5721 5720 5719 5718 5716 5714 5713 5713 5712 5711 5710 5709 5707 5706 5705 5703 5702 5700 5699 5697 5695 5693 5691 5690 5688 5687
5738 5735 5733 5732 5731 5730 5729 5727 5726 5724 5723 5721 5719 5717 5716 5714 5712 5711 5710 5709 5707 5706 5705 5704 5703 5702 5701 5700 5699 5698 5697 5696 5694 5693 5691 5690 5688 5687 5685 5683 5681 5680 5679
5728 5725 5723 5722 5720 5719 5718 5716 5715 5714 5712 5711 5709 5707 5706 5704 5703 5702 5700 5699 5698 5696 5695 5694 5693 5692 5692 5691 5690 5689 5687 5686 5685 5684 5683 5681 5680 5678 5677 5675 5673 5672 5671
5717 5715 5713 5711 5710 5708 5707 5706 5705 5703 5702 5701 5699 5697 5696 5695 5693 5692 5691 5690 5688 5687 5686 5685 5684 5683 5682 5681 5680 5679 5678 5677 5676 5675 5674 5673 5672 5670 5669 5667 5666 5665 5664
5707 5705 5703 5701 5700 5698 5697 5696 5694 5693 5692 5691 5689 5688 5687 5685 5684 5683 5681 5680 5679 5678 5676 5675 5674 5673 5672 5670 5670 5669 5668 5667 5666 5665 5665 5664 5663 5662 5661 5660 5659 5658 5657
5697 5695 5693 5691 5690 5689 5687 5686 5684 5683 5682 5681 5679 5678 5677 5676 5674 5673 5672 5670 5669 5668 5666 5665 5664 5663 5661 5660 5659 5659 5658 5657 5656 5655 5655 5654 5654 5653 5652 5652 5651 5650 5649
5686 5684 5683 5681 5680 5678 5677 5676 5674 5673 5672 5670 5669 5668 5667 5666 5664 5663 5661 5660 5659 5658 5656 5655 5654 5652 5651 5650 5649 5648 5648 5647 5646 5646 5645 5645 5644 5644 5644 5643 5643 5642 5642
5674 5673 5672 5670 5669 5668 5666 5665 5664 5663 5661 5660 5659 5658 5657 5655 5654 5652 5651 5650 5648 5647 5646 5644 5643 5642 5641 5640 5639 5638 5638 5637 5636 5636 5635 5635 5635 5635 5635 5635 5635 5634 5634
5662 5661 5660 5659 5658 5657 5656 5655 5653 5652 5651 5650 5649 5647 5646 5645 5644 5642 5641 5639 5638 5637 5635 5634 5633 5632 5631 5630 5629 5628 5628 5627 5626 5626 5625 5625 5625 5626 5626 5626 5626 5626 5626